Simultaneous Nadir Overpasses (SNOs) Predictions

Prediction of SNOs between GOES-15 and NPP Satellite Orbit:

Table of predicted SNOs for the next 14.0 days since TLE Epoch: 8/20/2016
Index Date Time (GOES-15) GOES-15 Lat,Lon NPP Lat,Lon Distance(km) Time Diff (sec)
1 08/21/2016 22:28:05 -0.38,-135.01 -0.57,-135.82 93.31 80
2 08/22/2016 22:12:01 -0.37,-135.04 0.49,-131.30 427.21 80
3 08/24/2016 10:33:48 0.38,-135.11 0.68,-136.57 165.99 80
4 08/25/2016 10:12:23 0.37,-135.14 -0.32,-132.03 353.53 80
5 08/26/2016 22:34:18 -0.37,-135.16 -0.86,-137.34 247.78 80
6 08/27/2016 22:18:13 -0.37,-135.19 0.14,-132.80 271.94 80
7 08/29/2016 10:40:00 0.36,-135.25 1.02,-138.07 321.61 80
8 08/30/2016 10:18:35 0.36,-135.28 -0.04,-133.55 197.50 80
9 08/31/2016 22:40:31
